This is the latest recevied weather packets stored in our database for station/object KD5BIG-13. If no packets are shown the sender has not sent any weather packets the latest 10 day(s).
| Time | Temp. | Humidity | Pressure | Rain* | Wind** | Luminosity | Snow |
|---|---|---|---|---|---|---|---|
| 1777999017 | 25.56° C | 68% | 1015.6 hPa | 0 mm | - | 797 W/m² | - |
| 1777998715 | 25.56° C | 70% | 1015.6 hPa | 0 mm | - | 1013 W/m² | - |
| 1777998412 | 25.56° C | 73% | 1015.4 hPa | 0 mm | - | 902 W/m² | - |
| 1777998109 | 25.56° C | 68% | 1015.6 hPa | 0 mm | - | 1039 W/m² | - |
| 1777997806 | 25.56° C | 70% | 1015.4 hPa | 0 mm | - | 382 W/m² | - |
| 1777997504 | 25.56° C | 70% | 1015.5 hPa | 0 mm | - | 917 W/m² | - |
| 1777997202 | 25° C | 74% | 1015.6 hPa | 0 mm | - | 972 W/m² | - |
| 1777996898 | 24.44° C | 73% | 1015.8 hPa | 0 mm | - | 208 W/m² | - |
| 1777996594 | 24.44° C | 73% | 1015.7 hPa | 0 mm | - | 210 W/m² | - |
| 1777996291 | 24.44° C | 70% | 1015.6 hPa | 0 mm | - | 740 W/m² | - |
| 1777995987 | 24.44° C | 75% | 1015.8 hPa | 0 mm | - | 702 W/m² | - |
| 1777995683 | 24.44° C | 71% | 1015.9 hPa | 0 mm | - | 676 W/m² | - |
| 1777995381 | 24.44° C | 71% | 1015.8 hPa | 0 mm | - | 594 W/m² | - |
| 1777995078 | 24.44° C | 72% | 1015.9 hPa | 0 mm | - | 681 W/m² | - |
| 1777994774 | 24.44° C | 72% | 1015.7 hPa | 0 mm | - | 548 W/m² | - |
| 1777994470 | 23.89° C | 73% | 1015.7 hPa | 0 mm | - | 656 W/m² | - |
| 1777994166 | 23.89° C | 74% | 1015.5 hPa | 0 mm | - | 645 W/m² | - |
| 1777993863 | 23.89° C | 73% | 1015.6 hPa | 0 mm | - | 687 W/m² | - |
| 1777993559 | 23.33° C | 73% | 1015.6 hPa | 0 mm | - | 678 W/m² | - |
| 1777993256 | 22.78° C | 77% | 1015.7 hPa | 0 mm | - | 653 W/m² | - |
| 1777992952 | 22.22° C | 77% | 1015.7 hPa | 0 mm | - | 616 W/m² | - |
| 1777992651 | 21.67° C | 80% | 1015.6 hPa | 0 mm | - | 317 W/m² | - |
| 1777992348 | 21.67° C | 79% | 1015.7 hPa | 0 mm | - | 235 W/m² | - |
| 1777992045 | 21.11° C | 81% | 1015.6 hPa | 0 mm | - | 248 W/m² | - |
| 1777991743 | 20.56° C | 80% | 1015.8 hPa | 0 mm | - | 200 W/m² | - |
* Rain latest hour (hover to see other rain measurements)
** Current wind speed in m/s (hover to see current wind gust speed)